This is the latest recevied weather packets stored in our database for station/object KJ6BBX. If no packets are shown the sender has not sent any weather packets the latest 10 day(s).
| Time | Temp. | Humidity | Pressure | Rain* | Wind** | Luminosity | Snow |
|---|---|---|---|---|---|---|---|
| 1788143714 | 76° F | 65% | 752.2 mmHg | 0 in | - | 0 W/m² | - |
| 1788142814 | 77° F | 65% | 752.4 mmHg | 0 in | - | 1 W/m² | - |
| 1788141914 | 78° F | 65% | 752.2 mmHg | 0 in | - | 6 W/m² | - |
| 1788141014 | 79° F | 63% | 752.3 mmHg | 0 in | - | 10 W/m² | - |
| 1788140113 | 80° F | 62% | 752.2 mmHg | 0 in | - | 15 W/m² | - |
| 1788139214 | 81° F | 59% | 752.3 mmHg | 0 in | - | 19 W/m² | - |
| 1788138314 | 82° F | 59% | 752.2 mmHg | 0 in | - | 26 W/m² | - |
| 1788137414 | 84° F | 58% | 752.2 mmHg | 0 in | - | 96 W/m² | - |
| 1788136512 | 85° F | 57% | 752.1 mmHg | 0 in | - | 23 W/m² | - |
| 1788135614 | 87° F | 54% | 751.9 mmHg | 0 in | - | 33 W/m² | - |
| 1788134713 | 88° F | 52% | 752.1 mmHg | 0 in | - | 46 W/m² | - |
| 1788133814 | 90° F | 50% | 751.9 mmHg | 0 in | - | 150 W/m² | - |
| 1788132913 | 90° F | 50% | 751.9 mmHg | 0 in | - | 210 W/m² | - |
| 1788132014 | 91° F | 50% | 752.1 mmHg | 0 in | - | 272 W/m² | - |
| 1788131114 | 92° F | 49% | 752.1 mmHg | 0 in | - | 262 W/m² | - |
| 1788130214 | 93° F | 49% | 752.4 mmHg | 0 in | - | 341 W/m² | - |
| 1788129313 | 93° F | 50% | 752.4 mmHg | 0 in | - | 358 W/m² | - |
| 1788128413 | 93° F | 50% | 752.5 mmHg | 0 in | - | 375 W/m² | - |
| 1788127514 | 94° F | 49% | 752.7 mmHg | 0 in | - | 385 W/m² | - |
| 1788126613 | 94° F | 49% | 752.8 mmHg | 0 in | - | 408 W/m² | - |
| 1788125713 | 95° F | 48% | 752.8 mmHg | 0 in | - | 465 W/m² | - |
| 1788124814 | 95° F | 48% | 753.1 mmHg | 0 in | - | 515 W/m² | - |
| 1788123912 | 95° F | 47% | 752.9 mmHg | 0 in | - | 497 W/m² | - |
| 1788123014 | 95° F | 49% | 753.1 mmHg | 0 in | - | 479 W/m² | - |
| 1788122114 | 95° F | 46% | 753.1 mmHg | 0 in | - | 545 W/m² | - |
* Rain since midnight (hover to see other rain measurements)
** Current wind speed in m/s (hover to see current wind gust speed)